COSMOS 1579 COOLANT, 28274

Orbit data source: Space-Track

COSMOS 1579 COOLANT, 28274 is space debris in LEO originally from a launch on Fri, 29 Jun 1984 UTC launched from the Tyuratam Missile And Space Complex (TTMTR). Debris objects in space refer to the collection of defunct objects orbiting the Earth. Examples of debris include non-operational satellites, rocket bodies, and fragments generated from explosions, collisions, or faulty payload assembly.

Loading next visibility...
Identifier
28274, 1984-069AK
Orbit
LEO
Country
Flag of CISCIS
Related business
Manufacturer
Unknown
Mission
Spacecraft
Bus & Motor
Unknown
Mass
Unknown
Launch date (UTC)
1984-06-29 (41 years ago)
Launch vehicle
Unknown
Launch site
Tyuratam Missile And Space Complex (TTMTR)
Object type
Payload
Rocket body
Debris
Shape & HBR
Unknown shape, 0.1 m
Radar Cross Section
Small (<0.1 m²)

Expand to show TLE details & history
Last TLE update: 2 weeks ago

TLE from 2 weeks ago
0 COSMOS 1579 COOLANT
1 28274U 84069AK  25340.35367955  .00000638  00000-0  55683-3 0  9994
2 28274  65.0516   6.5058 0031092  53.2193 307.1718 13.93048913172378
Epoch: 2025-12-06T08:29Z
TLE epoch observation values (Epoch: 2025-12-06T08:29:17.913Z)
Latitude
-0.00006°
Longitude
163.79851°
Altitude
906.244 km
Speed
7.406 km/s
True Right ascension
00h 26m 01s
True Declination
0° 00' 00"
Sunlit
Object was in daylight at epoch
Visualization orbit readout
Latitude
Unknown
Longitude
Unknown
Altitude
Unknown
Speed
Unknown
Apparent Right ascension
Unknown
Apparent Declination
Unknown
Sunlit
N/A
Visualization observer readout
Local Sidereal Time
00:02:29
Azimuth
Unknown
Elevation
Unknown
Doppler factor
Unknown
Orbital elements
Apogee altitude
939.244 km
Perigee altitude
893.882 km
Semi-major axis
7,294.7 km
Eccentricity
0.00311
Inclination
65.0516°
RAAN
6.5058°
Arg. of periapsis
53.2193°
True anomaly
306.88723°
Mean anomaly
307.1718°
Eccentric anomaly
307.02958°
Mean motion
3.48363 °/min
Orbital period
103.34 mins
BSTAR
0.00055683
Loading maneuver chart data...
Computing Atmospheric mass density...

Documentation

Showing up to 5 results
|